Weather in Vereshchaki

Ukraine / Cherkassi District     49°15′17″N   30°57′15″E
temp.,
°C
wind,
m/s
gust,
m/s
humid.,
%
clouds,
%
prec.,
mm/h
press.,
hPa
HPBL,
m
13 june, sun
sun1300:00+15wsw3391100 0.0 101038
03:00+14sw359249 0.0 100976
06:00+14ssw479310 0.0 1008144
09:00+20ssw58765 0.1 1007425
12:00+22ssw710675 3.4 10061607
15:00+21w677025 5.1 10061238
18:00+18nw7878100 0.3 1007933
21:00+15nnw5984100 0.4 1009414
14 june, mon
mon1400:00+12nw5996100 3.1 1009378
03:00+12nnw51095100 3.6 1009460
06:00+12n51097100 0.5 1009451
09:00+14ne4898100 0.6 1010384
12:00+17ese3789100 1.1 1011270
15:00+21se6775100 3.3 10111259
18:00+21s347298 0.9 1012705
21:00+17se118658 1.4 101312
15 june, tue
tue1500:00+15n229127 0.4 101417
03:00+14nne23946 0.9 101431
06:00+15n35952 0.0 1014102
09:00+20nne45810 0.0 1014388
12:00+23nne44685 2.2 10131039
15:00+24nne45642 2.8 10121408
18:00+23nne46765 1.5 1011854
21:00+18nne478977 5.0 1011118
16 june, wed
wed1600:00+16n499698 4.8 1010203
03:00+16n61198100 5.9 1010291
06:00+16n6119854 0.3 1011351
09:00+19nne798982 0.4 1012595
12:00+21nne7983100 0.3 10121001
15:00+21nne71083100 2.2 1012868
18:00+21nne7128243 1.3 1013882
21:00+18n51288100 1.7 1014418
17 june, thu
thu1700:00+17n6139485 0.9 1014393
03:00+15n6139799 0.9 1014385
06:00+15n6139799 0.0 1014416
09:00+18nne71090100 0.0 1015667
12:00+18ne5894100 0.5 1016536
15:00+18nne6109499 1.6 1016597
18:00+20ne71189100 2.4 1017895
21:00+18ne6129579 2.7 1017523